STARLINK-37895

Last updated on Sun Aug 09 2026 00:02:04 GMT+0000 (Coordinated Universal Time)

1 69950U 26157H 26220.15014102 .00024288 00000+0 44310-3 0 9994 2 69950 53.1597 177.3731 0001523 84.4068 275.7115 15.49327627 4706
UTC large
Height (km)
Speed (km/s)
/
Latitude / Longitude
Inclination (degrees)
Orbital Period (minutes)
Azimuth
Elevation
Range (km)
Doppler Factor

Next 0 passes for location: London (51.5072 / 0.1276)

No passes found over London.
STARLINK-37895